EW9496 Weather Reports


Display with metric or nautical units.
time (UTC)temp
F
wind
direction
speed
MPH
gust
MPH
rain 1hr
in
rain 24hr
in
rain mn
in
humidity
%
barometer
mb
20240725023032 81 360 5.0 13.0 0.00 0.00 0.00 71 1021.7
20240725021534 81 360 5.0 12.0 0.00 0.00 0.00 71 1021.8
20240725020032 82 360 5.0 12.0 0.00 0.00 0.00 71 1021.7
20240725014532 82 360 6.0 12.0 0.00 0.00 0.00 70 1021.6
20240725013032 81 360 4.0 14.0 0.00 0.00 0.00 70 1021.3
20240725011540 81 360 4.0 13.0 0.00 0.00 0.00 70 1021.1
20240725010029 81 360 5.0 10.0 0.00 0.00 0.00 69 1021.0
20240725004529 81 360 5.0 10.0 0.00 0.00 0.00 69 1021.0
20240725003044 81 360 7.0 13.0 0.00 0.00 0.00 69 1020.9
20240725001527 82 360 5.0 14.0 0.00 0.00 0.00 68 1020.9
20240725000028 82 360 5.0 12.0 0.00 0.00 0.00 68 1020.7
20240724234526 82 360 5.0 14.0 0.00 0.00 0.00 68 1020.3
20240724233026 82 360 6.0 14.0 0.00 0.00 0.00 68 1020.1
20240724231527 82 360 8.0 15.0 0.00 0.00 0.00 67 1020.1
20240724230024 82 360 5.0 12.0 0.00 0.00 0.00 67 1020.3
20240724224524 82 360 7.0 13.0 0.00 0.00 0.00 67 1020.3
20240724223024 82 360 7.0 16.0 0.00 0.00 0.00 67 1020.2
20240724221523 83 360 3.0 8.0 0.00 0.00 0.00 67 1020.2
20240724220029 83 360 0.0 0.0 0.00 0.00 0.00 66 1020.3
20240724214550 84 360 0.0 0.0 0.00 0.00 0.00 65 1020.3
20240724213027 84 360 0.0 0.0 0.00 0.00 0.00 64 1020.3
20240724211522 85 360 0.0 0.0 0.00 0.00 0.00 63 1020.4
20240724210036 86 360 0.0 0.0 0.00 0.00 0.00 63 1020.4
20240724204531 85 360 0.0 0.0 0.00 0.00 0.00 63 1020.4
20240724203022 85 360 0.0 0.0 0.00 0.00 0.00 63 1020.3
20240724201522 85 360 0.0 0.0 0.00 0.00 0.00 62 1020.4
20240724200025 85 360 0.0 0.0 0.00 0.00 0.00 62 1020.5
20240724194518 85 360 3.0 12.0 0.00 0.00 0.00 62 1020.7
20240724193018 85 360 2.0 14.0 0.00 0.00 0.00 61 1020.9
20240724191520 86 360 5.0 12.0 0.00 0.00 0.00 59 1021.0
20240724190016 87 360 5.0 10.0 0.00 0.00 0.00 60 1021.1
20240724184515 87 360 6.0 12.0 0.00 0.00 0.00 61 1021.1
20240724183028 86 360 4.0 13.0 0.00 0.00 0.00 61 1021.4
20240724181512 86 360 4.0 13.0 0.00 0.00 0.00 61 1021.5
20240724180012 86 360 4.0 11.0 0.00 0.00 0.00 62 1021.5
20240724174507 85 360 5.0 13.0 0.00 0.00 0.00 61 1021.4
20240724173012 85 360 8.0 12.0 0.00 0.00 0.00 60 1021.6
20240724171504 84 360 5.0 12.0 0.00 0.00 0.00 61 1021.7
20240724170003 83 360 6.0 15.0 0.00 0.00 0.00 63 1021.8
20240724164605 83 360 8.0 15.0 0.00 0.00 0.00 63 1021.9
20240724163100 83 360 7.0 14.0 0.00 0.00 0.00 63 1021.9
20240724161557 82 360 4.0 15.0 0.00 0.00 0.00 63 1021.6
20240724160055 82 360 10.0 17.0 0.00 0.00 0.00 63 1021.5
20240724154556 82 360 7.0 15.0 0.00 0.00 0.00 63 1021.5
20240724153054 81 360 6.0 15.0 0.00 0.00 0.00 64 1021.6
20240724151552 81 360 7.0 14.0 0.00 0.00 0.00 64 1021.7
20240724150053 82 360 6.0 18.0 0.00 0.00 0.00 64 1021.6
20240724144548 82 360 6.0 13.0 0.00 0.00 0.00 63 1021.2
20240724143047 82 360 6.0 16.0 0.00 0.00 0.00 63 1021.2
20240724141548 82 360 11.0 17.0 0.00 0.00 0.00 64 1021.0
20240724140044 81 360 5.0 13.0 0.00 0.00 0.00 65 1020.8
20240724134545 81 360 5.0 13.0 0.00 0.00 0.00 65 1020.8
20240724133101 81 360 5.0 12.0 0.00 0.00 0.00 66 1020.8
20240724131541 81 360 8.0 14.0 0.00 0.00 0.00 66 1020.8
20240724130040 81 360 7.0 15.0 0.00 0.00 0.00 67 1020.9
20240724124602 82 360 6.0 19.0 0.00 0.00 0.00 69 1021.0
20240724123038 82 360 7.0 14.0 0.00 0.00 0.00 71 1020.8
20240724121534 82 360 6.0 14.0 0.00 0.00 0.00 72 1020.9
20240724120032 81 360 6.0 12.0 0.00 0.00 0.00 72 1020.7
20240724114529 80 360 5.0 16.0 0.00 0.00 0.00 72 1020.8
20240724113033 80 360 5.0 12.0 0.00 0.00 0.00 73 1020.7
20240724111526 80 360 8.0 12.0 0.00 0.00 0.00 73 1020.7
20240724110036 80 360 6.0 11.0 0.00 0.00 0.00 73 1020.7
20240724104524 80 360 4.0 10.0 0.00 0.00 0.00 72 1020.6
20240724103023 80 360 4.0 9.0 0.00 0.00 0.00 72 1020.6
20240724101529 81 360 5.0 10.0 0.00 0.00 0.00 72 1020.4
20240724100021 81 360 5.0 15.0 0.00 0.00 0.00 72 1020.4
20240724094520 81 360 7.0 13.0 0.00 0.00 0.00 72 1020.6
20240724093018 81 360 6.0 11.0 0.00 0.00 0.00 72 1020.4
20240724091517 81 360 5.0 13.0 0.00 0.00 0.00 72 1020.2
20240724090016 81 360 6.0 12.0 0.00 0.00 0.00 72 1020.0
20240724084529 81 360 6.0 11.0 0.00 0.00 0.00 72 1020.0
20240724083015 81 360 6.0 11.0 0.00 0.00 0.00 72 1020.3
20240724081514 81 360 6.0 12.0 0.00 0.00 0.00 72 1020.4
20240724080016 81 360 7.0 12.0 0.00 0.00 0.00 72 1020.4
20240724074511 81 360 8.0 15.0 0.00 0.00 0.00 72 1020.1
20240724073009 81 360 7.0 14.0 0.00 0.00 0.00 72 1020.2
20240724071514 81 360 6.0 11.0 0.00 0.00 0.00 72 1019.9
20240724070005 81 360 4.0 9.0 0.00 0.00 0.00 72 1019.8
20240724064508 81 360 6.0 12.0 0.00 0.00 0.00 72 1019.8
20240724063034 81 360 5.0 14.0 0.00 0.00 0.00 72 1019.8
20240724061502 81 360 8.0 13.0 0.00 0.00 0.00 72 1019.9
20240724060001 81 360 6.0 12.0 0.00 0.00 0.00 72 1019.9
20240724054600 81 360 5.0 10.0 0.00 0.00 0.00 72 1019.9
20240724053108 81 360 6.0 11.0 0.00 0.00 0.00 72 1019.8
20240724051615 81 360 5.0 13.0 0.00 0.00 0.00 72 1020.0
20240724050058 81 360 5.0 12.0 0.00 0.00 0.00 72 1020.4
20240724044611 81 360 7.0 13.0 0.00 0.00 0.00 72 1020.5
20240724043058 81 360 7.0 13.0 0.00 0.00 0.00 72 1020.5
20240724041610 81 360 5.0 10.0 0.00 0.00 0.00 72 1020.4
20240724040051 81 360 4.0 10.0 0.00 0.00 0.00 72 1020.0
20240724034549 81 360 5.0 9.0 0.00 0.00 0.00 71 1020.0
20240724033054 81 360 4.0 9.0 0.00 0.00 0.00 71 1019.9
20240724031549 81 360 4.0 9.0 0.00 0.00 0.00 71 1019.9
20240724030048 81 360 5.0 10.0 0.00 0.00 0.00 71 1019.9
20240724024547 81 360 4.0 11.0 0.00 0.00 0.00 71 1019.9